Location: Arcueil
(48.7999°N, 2.3326°E)
Time: 18:00:19
(UTC+00:00)

EO-79 - Pass Details

Date: 19 June 2024
Orbit: 555 x 577 km, 98.0° (Epoch: 18 July)

Event Time Altitude Azimuth Distance (km) Brightness Sun altitude
Rises 02:28:41 0° 23° (NNE) 2,763 ? -9.8°
Reaches altitude 10° 02:31:06 10° 36° (NE) 1,857 ? -9.5°
Maximum altitude 02:34:32 27° 95° (E) 1,096 ? -9.2°
Drops below altitude 10° 02:37:50 11° 153° (SSE) 1,803 ? -8.9°
Sets 02:40:18 0° 167° (SSE) 2,725 ? -8.6°
